Погода в Боле

Хорватия     43°15′43″N   16°39′10″E
темп.,
°C
ветер,
м/с
пор.,
м/с
влажн.,
%
обл.,
%
осадки,
мм/ч
давл.,
гПа
погр.,
м
25 февраля, чт
чт2501:00+12св23640 0.0 103323
04:00+12св23630 0.0 103224
07:00+11св12660 0.0 103222
10:00+15юв22590 0.0 1031169
13:00+16ююв12620 0.0 1031228
16:00+15ююз11660 0.0 1030116
19:00+12ссз11770 0.0 103023
22:00+12сз117632 0.0 103122
26 февраля, пт
пт2601:00+11сз127522 0.0 103122
04:00+11ссз12770 0.0 102922
07:00+11с12770 0.0 102923
10:00+15сз11650 0.0 1028187
13:00+18з22550 0.0 1027486
16:00+16зсз23610 0.0 1026175
19:00+12ссз22760 0.0 102628
22:00+12сз12790 0.0 102629
27 февраля, сб
сб2701:00+11ссз12780 0.0 102630
04:00+11ссв22720 0.0 102525
07:00+11ссв33750 0.0 102557
10:00+15ссв25610 0.0 1025371
13:00+17ссв35560 0.0 1025565
16:00+16ссв47540 0.0 1024652
19:00+13ссв7125914 0.0 1026349
22:00+12ссв814619 0.0 1027480
28 февраля, вс
вс2801:00+10ссв812605 0.0 1027478
04:00+9ссв612590 0.0 1027405
07:00+8ссв510610 0.0 1028326
10:00+11ссв35470 0.0 1029506
13:00+14ссз13380 0.0 1028654
16:00+14сз34480 0.0 1027411
19:00+10сз23740 0.0 102994
22:00+9ссв23610 0.0 103076
1 марта, пн
пн101:00+8св34630 0.0 1030102
04:00+7ссв33635 0.0 103097
07:00+7ссв22613 0.0 103094
10:00+11ссв11450 0.0 1030307
13:00+13юз22425 0.0 1030655
16:00+12з335249 0.0 1029472
19:00+9сз237036 0.0 1030121
22:00+9с22670 0.0 103282